Regional Weather Roundup
Issued by NWS

Home | Current Version | Previous Version | Text Only | Print | Product List | Glossary Off
Versions: 1 2 3 4 5 6 7 8 9 10 11 12 13 14 15 16 17 18 19 20 21 22 23 24 25 26 27 28 29 30 31 32 33 34 35 36 37 38 39 40 41 42 43 44 45 46 47 48 49 50

000
ASUS45 KCYS 262310
RWRWY

WYOMING REGIONAL WEATHER ROUNDUP
NATIONAL WEATHER SERVICE CHEYENNE WY
500 PM MDT THU MAR 26 2015

NOTE:  "FAIR" INDICATES FEW OR NO CLOUDS BELOW 12,000 FEET
WITH NO SIGNIFICANT WEATHER AND/OR OBSTRUCTIONS TO VISIBILITY.

WYZ001-270000-
YELLOWSTONE NATIONAL PARK

CITY           SKY/WX    TMP DP  RH WIND       PRES   REMARKS
LK YELLOWSTONE   N/A     41  28  60 W8        30.35S
W YELLOWSTONE  NOT AVBL

$$
WYZ002>013-054>058-071-098>099-270000-
NORTHERN WYOMING

CITY           SKY/WX    TMP DP  RH WIND       PRES   REMARKS
JACKSON        MOSUNNY   46  28  49 VRB3      30.32F
CODY           FAIR      59  28  31 W15G25    30.14S
GREYBULL       CLOUDY    61  28  28 W12       30.09F
WORLAND        FAIR      63  29  27 N9        30.11F
SHERIDAN       CLOUDY    57  35  43 N13       30.08F
BUFFALO        CLOUDY    54  33  45 N20G25    30.10F
GILLETTE       CLOUDY    53  33  46 N14       30.09F
HULETT         DRIZZLE   46  32  57 NW6       30.12S
NEWCASTLE      FAIR      46  30  53 NW20G26   30.11S

$$
WYZ014>020-022>026-101>103-270000-
CENTRAL WYOMING

CITY           SKY/WX    TMP DP  RH WIND       PRES   REMARKS
BIG PINEY      FAIR      52  27  38 N24G33    30.29R
PINEDALE       FAIR      46  30  53 NW25G36   30.29R
DUBOIS         MOCLDY    48  28  46 W24G32    30.25S
LANDER         FAIR      63  27  25 N24G30    30.10F
RIVERTON       FAIR      60  25  26 E9        30.13S
CASPER         PTSUNNY   55  27  34 W12       30.12F
DOUGLAS        CLOUDY    53  29  39 N10       30.11F

$$
WYZ021-027>030-104>119-270000-
SOUTHERN WYOMING

CITY           SKY/WX    TMP DP  RH WIND       PRES   REMARKS
EVANSTON       FAIR      55  27  34 N12G20    30.34S
KEMMERER       FAIR      48  30  49 W18G25    30.34F
FORT BRIDGER   FAIR      54  28  37 NW20      30.35S
ROCK SPRINGS   FAIR      56  25  30 W22G35    30.24S
DIXON          MOCLDY    58  24  27 W15G22    30.24S
RAWLINS        FAIR      54  23  30 W23G32    30.19F
SARATOGA       CLOUDY    52  23  32 W15       30.21F
LARAMIE        CLOUDY    49  23  36 NW20G31   30.17R
CHEYENNE       CLOUDY    53  22  29 NW25G39   30.12R
TORRINGTON     CLOUDY    54  30  40 N18G24    30.10F
PINE BLUFFS    FAIR      54  23  30 N17       30.12S

$$



USA.gov is the U.S. government's official web portal to all federal, state and local government web resources and services.